[[{"header":{"parameterUnit":"m.s-1","parameterCategory":1,"la1":30.2991,"la2":30.254,"lo1":-89.0895,"lo2":-89.0444,"dy":0.0017,"dx":0.0017,"nx":28,"ny":28,"refTime":"2025-05-22T21:00:00:Z","depth":0,"parameterNumber":2,"parameterNumberName":"U-component_of_WINDS"},"data":[0,0,0,0,0,0,0,0,0,0,0,0,0,0,0,0,0,0,0,0,0,0,0,0,0,0,0,0,0,0,0,0,0,0,0,0,0,0,0,0,0,0,0,0,0,0,0,0,0,0,0,0,0,0,0,0,0,0,0.7122,0.7123,0,0.7183,0.7183,0.7184,0.726,0.7262,0.7263,0.7264,0.7326,0.7327,0.7327,0,0,0,0,0,0,0,0,0,0,0,0,0,0.7074,0.7075,0.7122,0.7123,0.7124,0.7182,0.7183,0.7184,0.726,0.7262,0.7263,0.7265,0.7326,0.7327,0.7327,0,0,0,0,0,0,0,0,0,0,0,0,0,0.7111,0.7075,0.7122,0.7169,0.7173,0.7182,0.7183,0.7184,0.726,0.7262,0.7264,0.7265,0.7326,0.7327,0.7327,0.7295,0,0,0.733,0.733,0,0,0,0,0,0,0,0,0.7109,0.7112,0.7161,0.7165,0.7171,0.7216,0.7189,0.7222,0.7259,0.7227,0.7264,0.7266,0.7288,0.7292,0.7299,0.7298,0.7301,0.733,0.733,0.7331,0.7331,0,0,0,0,0,0,0,0.7106,0.711,0.7146,0.7162,0.7168,0.7187,0.7194,0.7196,0.7246,0.723,0.7236,0.7242,0.7291,0.7298,0.7301,0.7302,0.733,0.733,0.7331,0.7331,0.7279,0.7278,0,0,0,0,0,0,0.7096,0.7108,0.7144,0.7148,0.7144,0.7186,0.7195,0.72,0.7247,0.7256,0.724,0.7245,0.7296,0.73,0.7304,0.7271,0.7331,0.7331,0.7332,0.7281,0.7279,0.7277,0,0,0,0,0,0,0.7095,0.7099,0.7142,0.7129,0.7136,0.7185,0.719,0.72,0.7207,0.7254,0.7264,0.7238,0.7298,0.7303,0.7297,0.7274,0.7332,0.7332,0.7283,0.7281,0.7278,0.7202,0,0,0,0,0,0,0.7093,0.7098,0.7086,0.7128,0.7137,0.7133,0.7189,0.72,0.7208,0.7215,0.7255,0.7263,0.73,0.7296,0.7298,0.7276,0.7333,0.7286,0.7282,0.7279,0.7207,0.7198,0.7189,0,0,0,0,0,0.7091,0.7062,0.7085,0.7089,0.7122,0.7132,0.7136,0.7179,0.7206,0.7195,0.7225,0.7262,0.7276,0.7294,0.7298,0.7275,0.7287,0.7283,0.7279,0.7211,0.7199,0.7189,0,0,0,0,0,0,0.7014,0.7068,0.7094,0.7077,0.7099,0.7145,0.7131,0.7164,0.7179,0.7185,0.7237,0.7245,0.7234,0.7254,0.7274,0.7248,0.7287,0.7284,0.7235,0.7224,0.7215,0.721,0.7334,0,0,0,0,0,0.6996,0.6998,0.7045,0.7026,0.7036,0.7081,0.7087,0.7118,0.7143,0.7153,0.7183,0.7206,0.7216,0.7221,0.7232,0.7211,0.7221,0.7197,0.7188,0.7181,0.7177,0.7168,0.7159,0.7263,0.7263,0.7264,0,0,0.6956,0.6986,0.6985,0.7011,0.7032,0.7034,0.7089,0.7089,0.7091,0.7153,0.7149,0.7172,0.7202,0.7188,0.7184,0.7205,0.715,0.7175,0.7169,0.7169,0.7163,0.7153,0.7144,0.7261,0.7261,0.7262,0,0,0.6887,0.6909,0.6896,0.6916,0.6947,0.6978,0.6975,0.7015,0.7033,0.7031,0.7077,0.7081,0.7097,0.7116,0.7128,0.7067,0.7102,0.707,0.7022,0.7013,0.7005,0.6998,0.6977,0.6969,0.7066,0.7066,0.7066,0,0.6834,0.6839,0.6885,0.6883,0.6893,0.695,0.6938,0.6955,0.6988,0.6994,0.7017,0.7039,0.7063,0.7055,0.7041,0.7048,0.7047,0.7065,0.7003,0.6996,0.699,0.6971,0.6963,0.7062,0.7062,0.7062,0.7063,0,0.6774,0.6777,0.6762,0.6793,0.6803,0.6795,0.6841,0.6845,0.6875,0.6904,0.6902,0.6932,0.6952,0.6952,0.6982,0.695,0.6962,0.6993,0.7034,0.6975,0.6958,0.6951,0.7056,0.7057,0.7058,0.7059,0,0,0.6656,0.6713,0.6707,0.6723,0.6762,0.6765,0.6761,0.678,0.6783,0.6804,0.6802,0.6815,0.6845,0.6858,0.6891,0.6883,0.6834,0.6915,0.6917,0.69,0.6802,0.6779,0.6769,0.6858,0.6857,0.6856,0.68,0,0.6593,0.6589,0.6631,0.6615,0.6619,0.6674,0.667,0.6694,0.6721,0.6729,0.6759,0.6768,0.6806,0.6814,0.6809,0.6841,0.6815,0.6846,0.6858,0.6857,0.6848,0.676,0.6735,0.6681,0.6794,0.6793,0.6792,0,0.652,0.6537,0.6522,0.6563,0.6566,0.6562,0.6584,0.6591,0.662,0.664,0.6656,0.6693,0.6693,0.6732,0.6733,0.6753,0.6761,0.6777,0.6776,0.6779,0.6821,0.6761,0.6665,0.6656,0.6782,0.6782,0.6783,0,0.6436,0.6456,0.645,0.6461,0.6509,0.6505,0.6525,0.6555,0.6565,0.6584,0.6591,0.661,0.662,0.6635,0.6677,0.6701,0.6673,0.6715,0.6691,0.669,0.6683,0.6682,0.6586,0.6687,0.6687,0.6687,0.6687,0,0.6362,0.635,0.6413,0.6409,0.6398,0.6447,0.6436,0.6461,0.6488,0.6491,0.654,0.6541,0.6597,0.6605,0.6638,0.6635,0.6639,0.6656,0.6665,0.6652,0.665,0.6658,0.6662,0.6685,0.6685,0.6686,0.6686,0,0.6266,0.6307,0.6304,0.635,0.6362,0.6352,0.6391,0.639,0.6421,0.6424,0.6428,0.6476,0.6488,0.6532,0.6555,0.6578,0.6564,0.6581,0.6554,0.656,0.6533,0.6535,0.6439,0.6429,0.6535,0.6534,0.6533,0,0.6216,0.6209,0.6254,0.6259,0.6277,0.6285,0.6295,0.6343,0.6352,0.6386,0.6381,0.6397,0.6413,0.643,0.6468,0.6487,0.6505,0.647,0.6508,0.6495,0.6505,0.6505,0.6505,0.6461,0.646,0.6459,0.6458,0,0.6123,0.6144,0.6156,0.6176,0.6187,0.6205,0.6226,0.6228,0.6282,0.629,0.6303,0.6315,0.634,0.6356,0.6381,0.6402,0.6439,0.6446,0.6441,0.6427,0.6412,0.6421,0.6532,0.6447,0.6448,0.6449,0.645,0.645,0.6049,0.6045,0.6077,0.609,0.6111,0.613,0.6131,0.6163,0.6174,0.6198,0.6226,0.6236,0.6268,0.6305,0.6324,0.6334,0.6354,0.6347,0.6345,0.6343,0.6337,0.6411,0.6338,0.6339,0.6339,0.6339,0.634,0,0.5959,0.5982,0.5993,0.6021,0.6032,0.6066,0.6091,0.6098,0.6106,0.6132,0.6147,0.6163,0.618,0.6219,0.624,0.624,0.6257,0.6244,0.6244,0.6249,0.6317,0.6319,0.6229,0.6229,0.6229,0.6229,0.6229,0.6229,0.5913,0.5909,0.5934,0.5942,0.5966,0.5976,0.5988,0.6006,0.6027,0.6043,0.6057,0.6083,0.6115,0.6139,0.6156,0.6167,0.6173,0.6153,0.617,0.6233,0.6244,0.6254,0.6256,0.6154,0.6154,0.6101,0.6101,0.61]},{"header":{"parameterUnit":"m.s-1","parameterCategory":1,"la1":30.2991,"la2":30.254,"lo1":-89.0895,"lo2":-89.0444,"dy":0.0017,"dx":0.0017,"nx":28,"ny":28,"refTime":"2025-05-22T21:00:00:Z","depth":0,"parameterNumber":3,"parameterNumberName":"V-component_of_WINDS"},"data":[0,0,0,0,0,0,0,0,0,0,0,0,0,0,0,0,0,0,0,0,0,0,0,0,0,0,0,0,0,0,0,0,0,0,0,0,0,0,0,0,0,0,0,0,0,0,0,0,0,0,0,0,0,0,0,0,0,0,3.3895,3.3894,0,3.383,3.3829,3.3829,3.3834,3.3835,3.3836,3.3837,3.3764,3.3761,3.3758,0,0,0,0,0,0,0,0,0,0,0,0,0,3.4017,3.4015,3.3895,3.3894,3.3893,3.383,3.3829,3.3828,3.3834,3.3835,3.3836,3.3837,3.3765,3.3761,3.3758,0,0,0,0,0,0,0,0,0,0,0,0,0,3.3959,3.4014,3.3895,3.3889,3.3887,3.383,3.3829,3.3828,3.3833,3.3835,3.3836,3.3838,3.3766,3.3761,3.3757,3.3701,0,0,3.3744,3.3742,0,0,0,0,0,0,0,0,3.3962,3.3955,3.389,3.3889,3.3887,3.3842,3.3846,3.3785,3.3833,3.3854,3.3837,3.3838,3.3788,3.3782,3.3766,3.3697,3.3694,3.3744,3.3741,3.3739,3.3738,0,0,0,0,0,0,0,3.3966,3.3957,3.3869,3.3889,3.3888,3.3887,3.388,3.3834,3.3813,3.3852,3.3852,3.3845,3.3787,3.377,3.3765,3.3693,3.3744,3.374,3.3737,3.3736,3.3573,3.3571,0,0,0,0,0,0,3.3973,3.3961,3.3871,3.3867,3.393,3.3883,3.3876,3.3855,3.3814,3.3809,3.3844,3.3845,3.3777,3.377,3.3762,3.3692,3.3739,3.3735,3.3733,3.3575,3.3573,3.3571,0,0,0,0,0,0,3.3975,3.3965,3.3874,3.3914,3.3902,3.388,3.3856,3.3853,3.3836,3.3807,3.3803,3.383,3.3778,3.3768,3.3716,3.369,3.3733,3.3729,3.3577,3.3574,3.3572,3.3553,0,0,0,0,0,0,3.3979,3.3966,3.3945,3.3914,3.39,3.3831,3.3854,3.385,3.3829,3.3831,3.3794,3.3789,3.3778,3.3723,3.3712,3.3685,3.3726,3.3579,3.3576,3.3573,3.3555,3.355,3.3545,0,0,0,0,0,3.3983,3.3941,3.3944,3.3934,3.3875,3.3829,3.3821,3.3812,3.3827,3.3805,3.3787,3.379,3.3695,3.3717,3.3705,3.3676,3.3581,3.3577,3.3573,3.3558,3.3551,3.3545,0,0,0,0,0,0,3.3968,3.3937,3.394,3.3887,3.3861,3.383,3.3803,3.3805,3.3772,3.3775,3.3762,3.3754,3.3701,3.3684,3.3709,3.3619,3.3639,3.3633,3.3632,3.3625,3.362,3.3624,3.3722,0,0,0,0,0,3.3959,3.3927,3.3901,3.3856,3.3844,3.3826,3.3805,3.38,3.3772,3.376,3.3738,3.3709,3.3672,3.3648,3.3612,3.3553,3.3544,3.3527,3.3522,3.3518,3.3512,3.3478,3.347,3.3558,3.3558,3.3558,0,0,3.3939,3.3918,3.3898,3.3853,3.3832,3.3797,3.3816,3.3778,3.3751,3.3754,3.3704,3.3686,3.3652,3.3597,3.3571,3.358,3.3486,3.3513,3.351,3.3506,3.3473,3.3465,3.3457,3.3555,3.3556,3.3556,0,0,3.3885,3.3867,3.3827,3.3807,3.3776,3.3764,3.3755,3.3724,3.3713,3.3664,3.3665,3.3631,3.3569,3.3544,3.3524,3.3461,3.3462,3.3449,3.3421,3.3388,3.3381,3.3375,3.335,3.3342,3.3444,3.3444,3.3444,0,3.3863,3.3813,3.3806,3.3768,3.3747,3.3751,3.371,3.3689,3.3647,3.3632,3.3644,3.3565,3.3543,3.3481,3.3465,3.3449,3.3436,3.3453,3.3383,3.3376,3.337,3.3347,3.3338,3.3442,3.3443,3.3443,3.3443,0,3.3787,3.3751,3.3723,3.3685,3.3661,3.3622,3.3607,3.3584,3.3581,3.3567,3.3516,3.3489,3.3448,3.3433,3.3429,3.337,3.3377,3.3386,3.3406,3.3361,3.3339,3.333,3.344,3.3441,3.3441,3.3442,0,0,3.3719,3.368,3.3669,3.3652,3.3618,3.359,3.355,3.3512,3.3491,3.3462,3.3427,3.3374,3.3383,3.3359,3.3353,3.3324,3.3274,3.3336,3.3335,3.3324,3.3205,3.3198,3.3188,3.3276,3.3274,3.3273,3.3208,0,3.3661,3.3592,3.3586,3.3523,3.349,3.3493,3.3458,3.3432,3.3418,3.3386,3.337,3.3333,3.3347,3.3333,3.3305,3.3286,3.325,3.3291,3.324,3.3238,3.3247,3.3177,3.3168,3.3109,3.3199,3.3198,3.3197,0,3.3582,3.3554,3.3489,3.346,3.3445,3.3414,3.3379,3.3349,3.3319,3.3311,3.3286,3.3283,3.324,3.3263,3.3202,3.323,3.3209,3.3197,3.3194,3.3187,3.3214,3.3167,3.309,3.308,3.3184,3.3185,3.3186,0,3.3538,3.3483,3.3437,3.3422,3.3388,3.3366,3.335,3.3322,3.33,3.3268,3.3253,3.3216,3.3195,3.3166,3.3152,3.3171,3.3091,3.3114,3.3081,3.3082,3.3063,3.3064,3.298,3.3052,3.3052,3.3052,3.3053,0,3.3472,3.3432,3.3417,3.3388,3.3343,3.3335,3.3289,3.3274,3.3249,3.3216,3.3216,3.3184,3.317,3.3135,3.3124,3.3074,3.3065,3.3056,3.3053,3.3055,3.3056,3.304,3.3043,3.305,3.3051,3.3051,3.3051,0,3.3414,3.3403,3.3353,3.3325,3.3317,3.3284,3.3259,3.3231,3.3218,3.3176,3.3166,3.3145,3.3104,3.3089,3.3039,3.3031,3.2973,3.2975,3.2984,3.2983,3.2951,3.2953,3.2852,3.2837,3.2921,3.292,3.2919,0,3.3372,3.3342,3.3311,3.329,3.3274,3.324,3.3218,3.3209,3.3185,3.3149,3.3124,3.3085,3.3052,3.2987,3.2966,3.2927,3.2927,3.2894,3.2921,3.2923,3.2924,3.2926,3.2922,3.2888,3.2887,3.2887,3.2886,0,3.3298,3.3294,3.3263,3.323,3.3204,3.3177,3.3151,3.3133,3.3119,3.3092,3.3052,3.3027,3.2977,3.2937,3.2897,3.2879,3.2879,3.2878,3.2868,3.2869,3.2875,3.287,3.2969,3.288,3.2881,3.2881,3.2882,3.2882,3.3246,3.3218,3.3193,3.3158,3.3138,3.3113,3.3085,3.307,3.3037,3.2997,3.2993,3.2949,3.292,3.2867,3.2847,3.2811,3.282,3.2806,3.2802,3.2798,3.2795,3.2883,3.2804,3.2804,3.2804,3.2804,3.2804,0,3.317,3.3155,3.3123,3.3087,3.3059,3.3066,3.3036,3.3012,3.2974,3.2948,3.2917,3.287,3.2831,3.2808,3.2768,3.2744,3.2743,3.2734,3.2734,3.273,3.2791,3.2803,3.2735,3.2735,3.2735,3.2735,3.2735,3.2735,3.3128,3.3082,3.3075,3.3018,3.3002,3.2961,3.2944,3.292,3.2899,3.2848,3.2817,3.2803,3.2777,3.2735,3.2699,3.2693,3.2678,3.2667,3.2662,3.2719,3.2726,3.2732,3.2743,3.2665,3.2664,3.2604,3.2603,3.2603]}]]